Other Public Products
Issued by NWS Grand Forks, ND

Home | Current Version | Previous Version | Graphics & Text | Print | Product List | Glossary On
Versions: 1 2 3 4 5 6 7 8 9 10 11 12 13 14 15 16 17 18 19 20 21 22 23 24 25 26 27 28 29 30 31 32 33 34 35 36 37 38 39 40 41 42 43 44 45 46 47 48 49 50
000
FPUS83 KFGF 290631
OPUFGF
PRAIRIE TO PINES WEATHER ROUNDUP
NATIONAL WEATHER SERVICE EASTERN NORTH DAKOTA/GRAND FORKS ND
100 AM CDT MON AUG 29 2016

 **SATELLITE DATA USED TO AUGMENT SKY COVER AT AUTOMATED STATIONS**
 *****  WEATHER ACROSS EASTERN NORTH DAKOTA  *****

CITY           SKY/WX    TMP DP  RH WIND       PRES   REMARKS
GRAND FORKS    FAIR      71  60  68 SE3       29.97R
6HR MIN TEMP:  70; 6HR MAX TEMP:  82;

GRAND FORKS AF FAIR      67  62  83 N1        29.99R
GRAND CITY NWS   N/A     68 N/A N/A SE1         N/A
BUXTON           N/A     70  69  96 SE8         N/A
DEVILS LAKE    FAIR      69  68  96 NE10      30.00S
6HR MIN TEMP:  67; 6HR MAX TEMP:  79;

FARGO          FAIR      73  65  75 SE10      29.99S
6HR MIN TEMP:  73; 6HR MAX TEMP:  87;

WAHPETON ARPT  FAIR      75  68  78 S10       30.00R
$$

 *****  WEATHER ACROSS CENTRAL AND WESTERN NORTH DAKOTA  *****

CITY           SKY/WX    TMP DP  RH WIND       PRES   REMARKS
JAMESTOWN      FAIR      65  64  97 SW5       29.99R
6HR MIN TEMP:  64; 6HR MAX TEMP:  84;

BISMARCK       CLEAR     72  56  57 N12G20    30.04R
6HR MIN TEMP:  70; 6HR MAX TEMP:  87;

MINOT          FAIR      63  54  72 NW7       30.09R
6HR MIN TEMP:  63; 6HR MAX TEMP:  85;

MINOT AFB      FAIR      56  52  85 NW7       30.09R
6HR MIN TEMP:  56; 6HR MAX TEMP:  85;

GARRISON         N/A     68  55  63 NE9       30.08R
6HR MIN TEMP:  64; 6HR MAX TEMP:  88;

WILLISTON      PTCLDY    64  48  56 N13       30.14R
6HR MIN TEMP:  64; 6HR MAX TEMP:  85;

DICKINSON      MOCLDY    68  49  50 N14       30.10R
6HR MIN TEMP:  68; 6HR MAX TEMP:  89;

HETTINGER      PTCLDY    71  48  43 NE16      30.10R
6HR MIN TEMP:  71; 6HR MAX TEMP:  92;

$$

 *****  OTHER OBSERVATIONS NORTHEAST NORTH DAKOTA  *****

CITY           SKY/WX    TMP DP  RH WIND       PRES   REMARKS
WALHALLA       FAIR      66  66 100 W10       29.99R THUNDER
LANGDON        FAIR      64  61  88 CALM      30.03R
CAVALIER       FAIR      66  64  94 S9        29.96F THUNDER
GRAFTON        MOCLDY    72  68  88 N14       30.03R
CANDO          MOCLDY    63  59  88 N6        30.07R
FORT TOTTEN      N/A     70  70 100 NE3       29.95
ROLLA          FAIR      64  59  82 NW10      30.07R
RUGBY          FAIR      63  61  94 NW7       30.06R
 ***** THE ABOVE OBSERVATIONS ARE NON NWS ARE NOT QUALITY
        CONTROLLED AND MAY MIS-REPORT RAIN FOR SNOW...
$$

 *****  OTHER OBSERVATIONS SOUTHEAST NORTH DAKOTA *****

CITY           SKY/WX    TMP DP  RH WIND       PRES   REMARKS
COOPERSTOWN    NOT AVBL
VALLEY CITY    FAIR      70  70 100 SW13      30.00R
OAKES            N/A    N/A N/A N/A MISG        N/A
GWINNER        FAIR      75  72  88 SW12      29.99S
SHEYENNE NWR     N/A     71  69  92 S5        29.95S
BUFFALO          N/A     72  69  90 E3          N/A
WYNDMERE         N/A     75  72  88 S5          N/A
 ***** THE ABOVE OBSERVATIONS ARE NON NWS ARE NOT QUALITY
       CONTROLLED AND MAY MIS-REPORT RAIN FOR SNOW...
$$

  *****  WEATHER ACROSS NORTHERN MINNESOTA  *****

CITY           SKY/WX    TMP DP  RH WIND       PRES   REMARKS
FLAG ISLAND    RAIN      66  63  88 SE6       30.02S
WARROAD        MOCLDY    64  61  88 SE6       30.05R
ROSEAU         FAIR      66  61  82 E5        30.02R
HALLOCK        MOCLDY    70  66  88 SW3       29.99R
THF RVR FALLS  FAIR      68  63  84 NE6       30.01R
6HR MIN TEMP:  67; 6HR MAX TEMP:  78; 6HR PCP:  0.04;

HALSTAD          N/A     68  64  89 SE8         N/A
FOSSTON        FAIR      64  61  88 S13       30.02S
BAUDETTE       CLOUDY    64  61  90 SE8       30.03F
6HR MIN TEMP:  61; 6HR MAX TEMP:  70; 6HR PCP:  1.28;

WASKISH        MOCLDY    64  63  94 SE8       30.05S
CROOKSTON      FAIR      68  63  83 S6        29.99S
$$
  *****  WEATHER ACROSS CENTRAL AND WEST MINNESOTA  *****

CITY           SKY/WX    TMP DP  RH WIND       PRES   REMARKS
BEMIDJI        TSTM      70  69  96 NE13      30.06R
PARK RAPIDS    HVY RAIN  64  60  87 NW14G44   30.09R VSB 3/4
6HR MIN TEMP:  74; 6HR MAX TEMP:  79;

WADENA         FAIR      72  68  88 S13       30.04R
DETROIT LAKES    N/A     64  63  94 N9        30.08  THUNDER
MOORHEAD       FAIR      73  66  78 SE10      30.01S
FERGUS FALLS   FAIR      75  72  88 S10G21    30.03R
ELBOW LAKE     FAIR      73  72  96 S13       30.04R
MORRIS MN      FAIR      73  72  94 S12       30.04S
STAPLES        FAIR      72  66  83 S12G17    30.06R
WHEATON        FAIR      75  73  94 S12       30.02S
$$
  *****  WEATHER ELSEWHERE ACROSS MINNESOTA  *****

CITY           SKY/WX    TMP DP  RH WIND       PRES   REMARKS
DULUTH         FAIR      64  64 100 SE8       30.15S
6HR MIN TEMP:  63; 6HR MAX TEMP:  68;

INTRNTL FALLS  LGT RAIN  63  60  90 SE8       30.08S
6HR MIN TEMP:  62; 6HR MAX TEMP:  70; 6HR PCP:  0.42;

ELY            FAIR      63  61  94 SE5       30.14R
CLOQUET        FAIR      63  61  94 E3        30.14S
BRAINERD       FAIR      72  68  87 S9        30.07F
6HR MIN TEMP:  71; 6HR MAX TEMP:  75;

HIBBING        CLOUDY    64  62  93 VRB3      30.13R
6HR MIN TEMP:  63; 6HR MAX TEMP:  71;

ALEXANDRIA     FAIR      75  69  81 S14       30.07F
6HR MIN TEMP:  73; 6HR MAX TEMP:  81;

SAINT CLOUD    FAIR      69  69 100 S8        30.09F
6HR MIN TEMP:  69; 6HR MAX TEMP:  80;

MINNEAPOLIS    FAIR      73  68  84 S9        30.12F
6HR MIN TEMP:  72; 6HR MAX TEMP:  82;

$$

  *****  WEATHER ACROSS SOUTH DAKOTA  *****

CITY           SKY/WX    TMP DP  RH WIND       PRES   REMARKS
SIOUX FALLS    FAIR      73  32  22 S9        30.10S
6HR MIN TEMP:  71; 6HR MAX TEMP:  85;

BROOKINGS        N/A    N/A N/A N/A MISG        N/A
WATERTOWN      FAIR      74  70  87 S10       30.06R
6HR MIN TEMP:  74; 6HR MAX TEMP:  84;

HURON          CLEAR     77  71  82 S13       30.02S
6HR MIN TEMP:  77; 6HR MAX TEMP:  89;

SISSETON         N/A     78  71  79 SW10      29.99R
ABERDEEN       CLEAR     74  67  78 S8        30.00R
6HR MIN TEMP:  74; 6HR MAX TEMP:  86;

MITCHELL       CLEAR     77  70  79 S13       30.04F
PIERRE         CLEAR     77  60  55 S15G24    29.98S
6HR MIN TEMP:  74; 6HR MAX TEMP:  94;

MOBRIDGE       CLEAR     68  57  68 SE3       29.96S
RAPID CITY     CLEAR     60  50  69 N3        30.07S
6HR MIN TEMP:  58; 6HR MAX TEMP:  88;

$$

  *****  SOME WEATHER IN NEARBY STATES *****

CITY           SKY/WX    TMP DP  RH WIND       PRES   REMARKS
GLASGOW MT     CLEAR     61  45  55 N9G18     30.17R
6HR MIN TEMP:  61; 6HR MAX TEMP:  83;

GREAT FALLS MT PTCLDY    56  43  61 NE7       30.23R
6HR MIN TEMP:  54; 6HR MAX TEMP:  74;

CHEYENNE WY    CLOUDY    61  45  55 W9        30.28F
6HR MIN TEMP:  61; 6HR MAX TEMP:  77;

SCOTTSBLUFF NE CLOUDY    62  55  77 CALM      30.15S
6HR MIN TEMP:  62; 6HR MAX TEMP:  84;

OMAHA NE       CLOUDY    72  65  78 E3        30.14S
6HR MIN TEMP:  71; 6HR MAX TEMP:  78;

DES MOINES IA  FAIR      73  69  87 SE6       30.15F THUNDER
6HR MIN TEMP:  72; 6HR MAX TEMP:  76;

DAVENPORT IA   FAIR      71  69  93 SE8       30.20R
6HR MIN TEMP:  71; 6HR MAX TEMP:  74; 6HR PCP:  0.16;

CHICAGO IL     MOCLDY    73  68  84 E5        30.22S
6HR MIN TEMP:  72; 6HR MAX TEMP:  75;

EAU CLAIRE WI  FAIR      66  65  96 CALM      30.17S
6HR MIN TEMP:  65; 6HR MAX TEMP:  78;

LA CROSSE WI   FAIR      70  69  97 SE6       30.18R
6HR MIN TEMP:  70; 6HR MAX TEMP:  80;

$$

  *****  SOME NATIONAL WEATHER *****

CITY           SKY/WX    TMP DP  RH WIND       PRES   REMARKS
LA GUARDIA NY  MOCLDY    77  66  68 SW10      30.14F
6HR MIN TEMP:  77; 6HR MAX TEMP:  80;                              C1F1C2F2C3F3C4F4C5F5C6F6C7F7C8F8C9F9CaFaCbFbCcFcCdFdCe!



USA.gov is the U.S. government's official web portal to all federal, state and local government web resources and services.